Weather History for Rantoul, IL

Change the Weather History Date:

Monday, October 1, 2012

  Actual Average (KCMI) Record (KCMI)
Temperature  
Mean Temperature 58 °F 59 °F  
Max Temperature 66 °F 72 °F 88 °F (2002)
Min Temperature 50 °F 47 °F 34 °F (2003)
Degree Days  
Heating Degree Days 7 7  
Month to date heating degree days 7  
Since 1 July heating degree days 99  
Cooling Degree Days 0 2  
Month to date cooling degree days 2  
Year to date cooling degree days 927  
Growing Degree Days 8 (Base 50)    
Moisture  
Dew Point 44 °F    
Average Humidity 61    
Maximum Humidity 82    
Minimum Humidity 37    
Precipitation  
Precipitation 0.00 in 0.10 in 0.10 in (2007)
Month to date precipitation 0.10  
Year to date precipitation 30.66  
Sea Level Pressure  
Sea Level Pressure 29.85 in    
Wind  
Wind Speed 7 mph (NE)    
Max Wind Speed 14 mph    
Max Gust Speed 20 mph    
Visibility 10 miles    
Events      
T = Trace of Precipitation, MM = Missing Value Source: NWS Daily Summary

Daily Weather History Graph

Daily Weather History Graph

Search for Another Location

Airport:

Trip Planner

Search our weather history database for the weather conditions in past years. The results will help you decide how hot, cold, wet, or windy it might be!

Date:

Astronomy

Oct. 01, 2012 Rise Set
Actual Time 6:49 AM CDT 6:33 PM CDT
Civil Twilight 6:22 AM CDT 7:01 PM CDT
Nautical Twilight 5:50 AM CDT 7:32 PM CDT
Astronomical Twilight 5:18 AM CDT 8:04 PM CDT
Moon 7:10 PM CDT (10/1) 8:18 AM CDT (10/1)
Length of Visible Light 12h 38m
Length of Day
11h 44m
Full, 98% of the Moon is Illuminated
Oct 1
Full
Oct 8
Last Quarter
Oct 15
New
Oct 21
First Quarter
Oct 29
Full

Hourly Weather History & Observations

Time (CDT) Temp. Dew Point Humidity Pressure Visibility Wind Dir Wind Speed Gust Speed Precip Events Conditions
12:15 AM 54.5 °F 47.3 °F 77% 29.92 in 10.0 mi NE 5.8 mph - N/A   Clear
12:35 AM 53.8 °F 47.3 °F 79% 29.92 in 10.0 mi NE 5.8 mph - N/A   Clear
12:55 AM 53.6 °F 47.3 °F 79% 29.91 in 10.0 mi NNE 5.8 mph - N/A   Clear
1:15 AM 52.9 °F 47.3 °F 81% 29.91 in 10.0 mi NNE 4.6 mph - N/A   Clear
1:35 AM 52.7 °F 47.1 °F 81% 29.91 in 10.0 mi NNE 4.6 mph - N/A   Clear
1:55 AM 52.7 °F 46.9 °F 81% 29.90 in 10.0 mi NE 5.8 mph - N/A   Clear
2:15 AM 52.7 °F 46.6 °F 80% 29.90 in 10.0 mi NE 5.8 mph - N/A   Clear
2:35 AM 52.3 °F 46.4 °F 80% 29.90 in 10.0 mi NE 6.9 mph - N/A   Clear
2:55 AM 52.3 °F 46.2 °F 80% 29.89 in 10.0 mi NE 6.9 mph - N/A   Clear
3:15 AM 52.0 °F 45.9 °F 80% 29.89 in 10.0 mi NE 6.9 mph - N/A   Clear
3:35 AM 51.8 °F 45.5 °F 79% 29.88 in 10.0 mi NE 5.8 mph - N/A   Clear
3:55 AM 51.8 °F 46.4 °F 82% 29.88 in 10.0 mi NE 5.8 mph - N/A   Clear
4:15 AM 51.4 °F 45.1 °F 79% 29.88 in 10.0 mi NE 5.8 mph - N/A   Clear
4:35 AM 51.3 °F 45.5 °F 81% 29.88 in 10.0 mi NE 5.8 mph - N/A   Clear
4:55 AM 51.8 °F 44.6 °F 76% 29.88 in 10.0 mi NE 5.8 mph - N/A   Clear
5:15 AM 51.3 °F 45.0 °F 79% 29.88 in 10.0 mi NE 6.9 mph - N/A   Clear
5:35 AM 51.1 °F 45.0 °F 80% 29.88 in 10.0 mi NE 6.9 mph - N/A   Clear
5:55 AM 50.9 °F 44.8 °F 80% 29.88 in 10.0 mi NE 6.9 mph - N/A   Clear
6:15 AM 50.9 °F 44.8 °F 80% 29.88 in 10.0 mi NE 6.9 mph - N/A   Clear
6:35 AM 51.1 °F 44.8 °F 79% 29.89 in 10.0 mi NE 6.9 mph - N/A   Clear
6:55 AM 50.9 °F 44.8 °F 80% 29.89 in 10.0 mi ENE 8.1 mph - N/A   Clear
7:15 AM 50.5 °F 44.8 °F 81% 29.89 in 7.0 mi ENE 5.8 mph - N/A   Clear
7:35 AM 51.4 °F 44.8 °F 78% 29.90 in 10.0 mi NE 6.9 mph - N/A   Clear
7:55 AM 51.8 °F 44.8 °F 77% 29.90 in 10.0 mi NE 8.1 mph - N/A   Clear
8:15 AM 52.7 °F 45.0 °F 75% 29.89 in 10.0 mi NE 8.1 mph - N/A   Clear
8:35 AM 53.8 °F 45.3 °F 73% 29.89 in 10.0 mi ENE 8.1 mph - N/A   Clear
8:55 AM 55.4 °F 46.4 °F 72% 29.89 in 10.0 mi ENE 8.1 mph - N/A   Clear
9:15 AM 56.7 °F 45.9 °F 67% 29.88 in 10.0 mi ENE 10.4 mph - N/A   Clear
9:35 AM 57.6 °F 45.7 °F 65% 29.88 in 10.0 mi ENE 9.2 mph - N/A   Clear
9:55 AM 58.8 °F 45.9 °F 62% 29.88 in 10.0 mi NE 8.1 mph - N/A   Clear
10:15 AM 60.3 °F 44.2 °F 55% 29.88 in 10.0 mi ENE 9.2 mph - N/A   Clear
10:35 AM 61.2 °F 45.0 °F 55% 29.87 in 10.0 mi NE 8.1 mph - N/A   Clear
10:55 AM 61.7 °F 44.4 °F 53% 29.87 in 10.0 mi NE 9.2 mph - N/A   Clear
11:15 AM 62.6 °F 43.5 °F 50% 29.87 in 10.0 mi ENE 12.7 mph 17.3 mph N/A   Clear
11:35 AM 63.7 °F 43.3 °F 48% 29.86 in 10.0 mi ENE 11.5 mph 16.1 mph N/A   Clear
11:55 AM 64.0 °F 42.4 °F 45% 29.86 in 10.0 mi NE 11.5 mph - N/A   Clear
12:15 PM 64.4 °F 42.1 °F 44% 29.86 in 10.0 mi NE 11.5 mph - N/A   Clear
12:35 PM 64.6 °F 40.6 °F 42% 29.85 in 10.0 mi NE 13.8 mph - N/A   Clear
12:55 PM 65.3 °F 40.5 °F 40% 29.85 in 10.0 mi ENE 12.7 mph 19.6 mph N/A   Clear
1:15 PM 65.5 °F 41.4 °F 41% 29.84 in 10.0 mi NE 13.8 mph 17.3 mph N/A   Clear
1:35 PM 65.5 °F 41.2 °F 41% 29.83 in 10.0 mi NE 10.4 mph - N/A   Clear
1:55 PM 66.0 °F 41.2 °F 40% 29.82 in 10.0 mi NE 12.7 mph - N/A   Clear
2:15 PM 65.7 °F 40.6 °F 40% 29.82 in 10.0 mi NE 13.8 mph 17.3 mph N/A   Clear
2:35 PM 66.2 °F 41.0 °F 40% 29.82 in 10.0 mi NNE 10.4 mph - N/A   Clear
2:55 PM 66.2 °F 40.3 °F 39% 29.81 in 10.0 mi ENE 10.4 mph - N/A   Clear
3:15 PM 66.2 °F 39.2 °F 37% 29.81 in 10.0 mi NE 8.1 mph - N/A   Clear
3:35 PM 65.8 °F 40.5 °F 39% 29.81 in 10.0 mi NE 9.2 mph - N/A   Clear
3:55 PM 65.7 °F 40.5 °F 40% 29.80 in 10.0 mi NE 11.5 mph 16.1 mph N/A   Clear
4:15 PM 65.5 °F 41.4 °F 41% 29.79 in 10.0 mi NE 11.5 mph 17.3 mph N/A   Clear
4:35 PM 65.5 °F 41.2 °F 41% 29.79 in 10.0 mi NNE 9.2 mph - N/A   Clear
4:55 PM 65.3 °F 41.0 °F 41% 29.79 in 10.0 mi NNE 8.1 mph - N/A   Clear
5:15 PM 64.8 °F 41.0 °F 42% 29.79 in 10.0 mi NE 8.1 mph - N/A   Clear
5:35 PM 64.4 °F 41.4 °F 43% 29.79 in 10.0 mi NNE 6.9 mph - N/A   Clear
5:55 PM 62.8 °F 43.0 °F 48% 29.78 in 10.0 mi North 8.1 mph - N/A   Clear
6:15 PM 62.6 °F 43.2 °F 49% 29.79 in 10.0 mi North 8.1 mph - N/A   Clear
6:35 PM 63.0 °F 41.9 °F 46% 29.79 in 10.0 mi NNE 6.9 mph - N/A   Clear
6:55 PM 62.4 °F 42.4 °F 48% 29.80 in 10.0 mi NNE 5.8 mph - N/A   Clear
7:15 PM 61.9 °F 42.8 °F 50% 29.80 in 10.0 mi NE 6.9 mph - N/A   Clear
7:35 PM 61.2 °F 43.5 °F 52% 29.80 in 10.0 mi NE 5.8 mph - N/A   Clear
7:55 PM 60.8 °F 43.7 °F 53% 29.80 in 10.0 mi NNE 5.8 mph - N/A   Clear
8:15 PM 59.9 °F 44.8 °F 57% 29.81 in 10.0 mi North 5.8 mph - N/A   Clear
8:35 PM 60.1 °F 44.8 °F 57% 29.82 in 10.0 mi NNE 4.6 mph - N/A   Clear
8:55 PM 59.9 °F 44.6 °F 57% 29.82 in 10.0 mi North 5.8 mph - N/A   Clear
9:15 PM 59.7 °F 44.6 °F 57% 29.81 in 10.0 mi North 5.8 mph - N/A   Clear
9:35 PM 59.9 °F 44.8 °F 57% 29.81 in 10.0 mi North 8.1 mph - N/A   Clear
9:55 PM 59.9 °F 45.3 °F 59% 29.81 in 10.0 mi North 9.2 mph - N/A   Clear
10:15 PM 59.9 °F 46.4 °F 61% 29.80 in 10.0 mi North 10.4 mph - N/A   Scattered Clouds
10:35 PM 59.5 °F 47.7 °F 65% 29.80 in 10.0 mi North 10.4 mph - N/A   Scattered Clouds
10:55 PM 59.5 °F 48.6 °F 67% 29.80 in 10.0 mi North 9.2 mph - N/A   Clear
11:15 PM 59.4 °F 48.7 °F 68% 29.80 in 10.0 mi North 10.4 mph - N/A   Clear
11:35 PM 59.0 °F 49.1 °F 70% 29.79 in 10.0 mi North 9.2 mph - N/A   Clear
11:55 PM 59.0 °F 49.1 °F 70% 29.79 in 10.0 mi North 10.4 mph - N/A   Clear